Date String (YYYY-MM-DD hh:mm:ss) UTC,Instrument flags,absolute air pressure of the measurement (hPa),sample flow rate (lpm),inlet stack bypass flow (lpm),air temperature of the measurement (°C),ambient temperature measured by the external sensor (°C),aerosol sample conditioner tube jacket temperature (°C),OPC LED temperature (°C),internal box temperature (°C),relative humidity of the measurement (%),span deviation,mass concentration of particles derived from Lorenz-Mie calculation of OPC scattering (μg/m³),mass concentration of particles derived from Lorenz-Mie calculation of OPC scattering (μg/m³),mass concentration of particles derived from Lorenz-Mie calculation of OPC scattering (μg/m³)
DateTimeUTC,F1_M11,P_M11,Q1_M11,Q2_M11,T1_M11,T2_M11,T3_M11,T4_M11,T5_M11,U1_M11,ZSPAN_M11,X2_M11,X0_M11,X1_M11
2024-05-30 14:00:00,SystemResetWarning,0830.3,4.98,000.00,030.3,029.5,000.0,038.6,032.0,018.9,0000.0,0003.47,0008.54,0002.23
2024-05-30 14:01:00,SystemResetWarning,0830.3,5.00,000.00,030.3,029.5,000.0,038.6,032.0,019.2,0000.0,0003.45,0008.50,0002.23
2024-05-30 14:02:00,SystemResetWarning,0830.3,5.01,000.00,030.3,029.5,000.0,038.7,032.0,018.6,0000.0,0003.44,0008.48,0002.23
2024-05-30 14:03:00,SystemResetWarning,0830.4,5.00,000.00,030.3,029.5,000.0,038.7,032.0,018.7,0000.0,0003.45,0008.54,0002.25
2024-05-30 14:04:00,SystemResetWarning,0830.3,5.01,000.00,030.3,029.5,000.0,038.7,032.0,018.9,0000.0,0003.42,0009.31,0002.26
2024-05-30 14:05:00,SystemResetWarning,0830.3,5.00,000.00,030.3,029.5,000.0,038.7,032.0,019.1,0000.0,0003.40,0009.38,0002.28
2024-05-30 14:06:00,SystemResetWarning,0830.3,5.00,000.00,030.3,029.5,000.0,038.7,032.0,019.2,0000.0,0003.40,0009.64,0002.31
2024-05-30 14:07:00,SystemResetWarning,0830.3,5.00,000.00,030.3,029.5,000.0,038.7,032.0,019.0,0000.0,0003.42,0009.77,0002.32
2024-05-30 14:08:00,SystemResetWarning,0830.3,4.99,000.00,030.3,029.6,000.0,038.7,032.0,018.4,0000.0,0003.47,0010.26,0002.31
2024-05-30 14:09:00,SystemResetWarning,0830.3,5.00,000.00,030.3,029.6,000.0,038.7,032.0,018.3,0000.0,0003.42,0010.39,0002.30
2024-05-30 14:10:00,SystemResetWarning,0830.3,5.00,000.00,030.3,029.6,000.0,038.7,032.0,018.7,0000.0,0003.38,0010.59,0002.31
2024-05-30 14:11:00,SystemResetWarning,0830.3,5.00,000.00,030.4,029.6,000.0,038.7,032.1,018.8,0000.0,0003.39,0010.45,0002.32
2024-05-30 14:12:00,SystemResetWarning,0830.4,5.00,000.00,030.4,029.6,000.0,038.7,032.1,018.4,0000.0,0003.43,0011.34,0002.31
2024-05-30 14:13:00,SystemResetWarning,0830.3,5.00,000.00,030.4,029.6,000.0,038.7,032.1,018.4,0000.0,0003.43,0011.99,0002.31
2024-05-30 14:14:00,SystemResetWarning,0830.3,5.00,000.00,030.4,029.6,000.0,038.7,032.1,018.5,0000.0,0003.45,0012.25,0002.33
2024-05-30 14:15:00,SystemResetWarning,0830.3,5.01,000.00,030.4,029.6,000.0,038.7,032.1,018.6,0000.0,0003.47,0011.84,0002.33
2024-05-30 14:16:00,SystemResetWarning,0830.3,5.00,000.00,030.4,029.6,000.0,038.7,032.1,018.5,0000.0,0003.48,0011.80,0002.32
2024-05-30 14:17:00,SystemResetWarning,0830.3,5.00,000.00,030.4,029.6,000.0,038.8,032.1,018.6,0000.0,0003.45,0011.57,0002.30
2024-05-30 14:18:00,SystemResetWarning,0830.3,5.00,000.00,030.4,029.6,000.0,038.8,032.1,018.8,0000.0,0003.43,0011.50,0002.29
2024-05-30 14:19:00,SystemResetWarning,0830.3,5.00,000.00,030.4,029.6,000.0,038.8,032.1,019.1,0000.0,0003.40,0011.38,0002.28
2024-05-30 14:20:00,SystemResetWarning,0830.3,5.00,000.00,030.4,029.6,000.0,038.8,032.1,018.4,0000.0,0003.38,0010.73,0002.27
2024-05-30 14:21:00,SystemResetWarning,0830.3,5.00,000.00,030.4,029.6,000.0,038.8,032.1,017.8,0000.0,0003.40,0010.16,0002.28
2024-05-30 14:22:00,SystemResetWarning,0830.3,5.00,000.00,030.4,029.7,000.0,038.8,032.1,017.9,0000.0,0003.37,0009.65,0002.27
2024-05-30 14:23:00,SystemResetWarning,0830.3,5.00,000.00,030.4,029.7,000.0,038.8,032.1,018.4,0000.0,0003.35,0008.93,0002.29
2024-05-30 14:24:00,SystemResetWarning,0830.3,5.00,000.00,030.4,029.7,000.0,038.8,032.1,018.9,0000.0,0003.35,0008.28,0002.28
2024-05-30 14:25:00,SystemResetWarning,0830.3,5.00,000.00,030.4,029.7,000.0,038.8,032.2,019.5,0000.0,0003.38,0008.06,0002.27
2024-05-30 14:26:00,SystemResetWarning,0830.3,5.01,000.00,030.5,029.7,000.0,038.8,032.2,018.9,0000.0,0003.38,0008.11,0002.27
2024-05-30 14:27:00,SystemResetWarning,0830.3,5.01,000.00,030.5,029.7,000.0,038.8,032.2,018.6,0000.0,0003.40,0008.16,0002.28
2024-05-30 14:28:00,SystemResetWarning,0830.3,4.98,000.00,030.5,029.7,000.0,038.8,032.2,019.1,0000.0,0003.43,0008.27,0002.30
2024-05-30 14:29:00,SystemResetWarning,0830.3,5.00,000.00,030.5,029.7,000.0,038.8,032.2,019.4,0000.0,0003.48,0008.51,0002.32
2024-05-30 14:30:00,SystemResetWarning,0830.3,5.01,000.00,030.5,029.7,000.0,038.8,032.2,019.1,0000.0,0003.50,0008.36,0002.32
2024-05-30 14:31:00,SystemResetWarning,0830.3,5.02,000.00,030.5,029.7,000.0,038.9,032.2,019.5,0000.0,0003.55,0009.14,0002.33
2024-05-30 14:32:00,SystemResetWarning,0830.3,4.99,000.00,030.5,029.7,000.0,038.9,032.2,019.5,0000.0,0003.59,0009.32,0002.33
2024-05-30 14:33:00,SystemResetWarning,0830.3,4.99,000.00,030.5,029.7,000.0,038.9,032.2,019.8,0000.0,0003.61,0009.30,0002.33
2024-05-30 14:34:00,SystemResetWarning,0830.3,5.01,000.00,030.5,029.7,000.0,038.9,032.2,019.1,0000.0,0003.63,0009.26,0002.32
2024-05-30 14:35:00,SystemResetWarning,0830.2,5.01,000.00,030.5,029.7,000.0,038.9,032.2,018.8,0000.0,0003.66,0009.59,0002.32
2024-05-30 14:36:00,SystemResetWarning,0830.2,4.99,000.00,030.5,029.7,000.0,038.9,032.2,018.5,0000.0,0003.59,0011.16,0002.31
2024-05-30 14:37:00,SystemResetWarning,0830.2,4.99,000.00,030.5,029.7,000.0,038.9,032.2,019.1,0000.0,0003.57,0011.10,0002.31
2024-05-30 14:38:00,SystemResetWarning,0830.2,5.01,000.00,030.5,029.7,000.0,038.9,032.2,019.3,0000.0,0003.56,0010.90,0002.31
2024-05-30 14:39:00,SystemResetWarning,0830.2,5.00,000.00,030.5,029.7,000.0,038.9,032.2,018.9,0000.0,0003.53,0011.02,0002.31
2024-05-30 14:40:00,SystemResetWarning,0830.2,5.01,000.00,030.5,029.7,000.0,038.9,032.2,019.3,0000.0,0003.50,0011.64,0002.29
2024-05-30 14:41:00,SystemResetWarning,0830.3,5.00,000.00,030.5,029.7,000.0,038.9,032.1,019.9,0000.0,0003.50,0012.59,0002.31
2024-05-30 14:42:00,SystemResetWarning,0830.2,5.00,000.00,030.5,029.7,000.0,038.9,032.2,019.9,0000.0,0003.47,0012.23,0002.34
2024-05-30 14:43:00,SystemResetWarning,0830.2,5.00,000.00,030.5,029.7,000.0,038.9,032.2,019.5,0000.0,0003.46,0012.64,0002.35
2024-05-30 14:44:00,SystemResetWarning,0830.2,5.00,000.00,030.5,029.7,000.0,038.9,032.2,018.4,0000.0,0003.46,0012.99,0002.36
2024-05-30 14:45:00,SystemResetWarning,0830.2,5.00,000.00,030.5,029.7,000.0,038.9,032.2,019.0,0000.0,0003.47,0014.16,0002.37
2024-05-30 14:46:00,SystemResetWarning,0830.1,5.00,000.00,030.5,029.7,000.0,038.9,032.2,019.5,0000.0,0003.46,0015.41,0002.39
2024-05-30 14:47:00,SystemResetWarning,0830.2,4.99,000.00,030.5,029.7,000.0,038.9,032.2,019.4,0000.0,0003.53,0014.47,0002.41
2024-05-30 14:48:00,SystemResetWarning,0830.2,5.00,000.00,030.5,029.7,000.0,038.9,032.2,019.2,0000.0,0003.58,0014.40,0002.41
2024-05-30 14:49:00,SystemResetWarning,0830.2,5.00,000.00,030.5,029.7,000.0,038.9,032.2,018.2,0000.0,0003.58,0014.55,0002.40
2024-05-30 14:50:00,SystemResetWarning,0830.2,5.01,000.00,030.5,029.7,000.0,038.9,032.2,018.4,0000.0,0003.57,0014.49,0002.39
2024-05-30 14:51:00,SystemResetWarning,0830.2,4.99,000.00,030.5,029.7,000.0,038.9,032.2,018.8,0000.0,0003.59,0013.91,0002.39
2024-05-30 14:52:00,SystemResetWarning,0830.3,5.00,000.00,030.5,029.7,000.0,038.9,032.2,019.3,0000.0,0003.60,0012.86,0002.40
2024-05-30 14:53:00,SystemResetWarning,0830.2,5.00,000.00,030.5,029.7,000.0,038.9,032.2,019.0,0000.0,0003.60,0013.61,0002.37
2024-05-30 14:54:00,SystemResetWarning,0830.2,5.00,000.00,030.5,029.7,000.0,038.9,032.2,019.3,0000.0,0003.58,0014.44,0002.35
2024-05-30 14:55:00,SystemResetWarning,0830.3,5.00,000.00,030.5,029.7,000.0,038.9,032.2,019.6,0000.0,0003.60,0014.75,0002.35
2024-05-30 14:56:00,SystemResetWarning,0830.2,5.00,000.00,030.5,029.7,000.0,038.9,032.2,019.2,0000.0,0003.64,0013.76,0002.36
2024-05-30 14:57:00,SystemResetWarning,0830.3,5.01,000.00,030.5,029.7,000.0,038.9,032.2,018.8,0000.0,0003.63,0012.35,0002.35
2024-05-30 14:58:00,SystemResetWarning,0830.3,5.01,000.00,030.5,029.7,000.0,038.9,032.2,018.9,0000.0,0003.61,0012.19,0002.35
2024-05-30 14:59:00,SystemResetWarning,0830.2,4.99,000.00,030.5,029.7,000.0,038.9,032.2,018.8,0000.0,0003.59,0011.79,0002.36
